This demonstration page uses our WeatherBlox Daily Observations layout. Learn more.

Left ArrowRight Arrow

Hourly Observations for October 28, 2020

Temp ( °F °C ) Dew Point ( °F °C ) Humidity (%) Winds ( mph kmh ) Pressure ( in mb ) Visibility ( mi km ) Precip ( " mm )
12:53 am 00:53 Clear 26 -3.3 18 -7.8 71 71 WSW 7 11 30.17 1022 10 16 0.00 0.00
1:53 am 01:53 Clear 25 -3.9 17 -8.3 72 72 WSW 6 9 30.13 1020 10 16 0.00 0.00
2:53 am 02:53 Clear 25 -3.9 17 -8.3 72 72 SW 6 9 30.13 1020 10 16 0.00 0.00
3:53 am 03:53 Clear 23 -5 16 -8.9 74 74 SW 5 7 30.10 1019 10 16 0.00 0.00
4:53 am 04:53 Clear 22 -5.6 16 -8.9 78 78 WSW 8 13 30.07 1018 10 16 0.00 0.00
5:53 am 05:53 Clear 25 -3.9 17 -8.3 72 72 SSW 6 9 30.09 1019 10 16 0.00 0.00
6:53 am 06:53 Clear 22 -5.6 16 -8.9 78 78 SW 6 9 30.11 1020 10 16 0.00 0.00
7:53 am 07:53 Clear 21 -6.1 16 -8.9 81 81 W 5 7 30.11 1020 10 16 0.00 0.00
8:53 am 08:53 Sunny 25 -3.9 18 -7.8 75 75 WNW 7 11 30.09 1019 10 16 0.00 0.00
9:53 am 09:53 Sunny 32 0 23 -5 69 69 NW 10 17 30.08 1019 10 16 0.00 0.00
10:53 am 10:53 Sunny 39 3.9 26 -3.3 60 60 NW 3 6 30.05 1018 10 16 0.00 0.00
11:53 am 11:53 Sunny 44 6.7 28 -2.2 53 53 WSW 3 6 30.04 1017 10 16 0.00 0.00
12:53 pm 12:53 Sunny 47 8.3 30 -1.1 52 52 S 9 15 30.04 1017 10 16 0.00 0.00
1:53 pm 13:53 Sunny 50 10 32 0 50 50 NNW 7 11 30.00 1016 10 16 0.00 0.00
2:53 pm 14:53 Sunny 57 13.9 32 0 39 39 Calm 29.98 1015 10 16 0.00 0.00
3:53 pm 15:53 Sunny 58 14.4 32 0 38 38 SE 3 6 29.98 1015 10 16 0.00 0.00
4:53 pm 16:53 Sunny 59 15 33 0.6 38 38 N 6 9 29.96 1014 10 16 0.00 0.00
5:53 pm 17:53 Sunny 54 12.2 31 -0.6 42 42 NE 9 15 29.96 1015 10 16 0.00 0.00
6:53 pm 18:53 Clear 50 10 32 0 50 50 NE 7 11 30.02 1017 10 16 0.00 0.00
7:53 pm 19:53 Clear 48 8.9 32 0 54 54 NNE 8 13 30.05 1018 10 16 0.00 0.00
8:53 pm 20:53 Clear 48 8.9 34 1.1 58 58 NNE 12 19 30.08 1019 10 16 0.00 0.00
9:53 pm 21:53 Clear 46 7.8 35 1.7 66 66 N 20 31 30.05 1018 10 16 0.00 0.00
10:53 pm 22:53 Clear 44 6.7 35 1.7 71 71 N 18 30 30.09 1019 10 16 0.00 0.00
11:53 pm 23:53 Clear 42 5.6 35 1.7 76 76 NNE 14 22 30.10 1019 10 16 0.00 0.00

Powered by AerisWeather